User: anonymous
Location: Unspecified
(0.0000°N, 0.0000°E)
Time: 10:34:41
(UTC+00:00)
Language:

CUTE 1.7 & AOD 2 - Orbit

View from above orbital plane
View from above orbital plane
View from above satellite
View from above satellite

Ground track
Ground track

The orbit data is extracted from the following two-line orbital elements,

1 32785U 08021C   14107.86535595  .00003130  00000-0  37154-3 0  9243
2 32785 097.7052 161.1287 0014303 033.7406 020.8745 14.85092487323076
Epoch (UTC): 17 April 2014 20:46:06
Eccentricity: 0.0014303
inclination: 97.7052°
perigee height: 603 km
apogee height: 623 km
right ascension of ascending node: 161.1287°
argument of perigee: 33.7406°
revolutions per day: 14.85092487
mean anomaly at epoch: 20.8745°
orbit number at epoch: 32307

The dashed part of the orbit path shows where the satellite is in the earth's shadow,  

DLR